• în România
  • Lista ţărilor
  • Pe 7 zile
  • Temperatura apei
  • Hartă satelitară
  • Meteo pe hartă
  • Widget-uri
  • user-avatar
    Intrare

    Meteo pe oră la Salgotarjan

    Astăzi, 16 Octombrie, Marţi

    Timp Temperatura Precipitaţii Vânt Presiune Umiditate
    00:00 +11°C° 0 mm 1 m/s 736 mmHg 46%
    01:00 +12°C° 0 mm 1 m/s 736 mmHg 45%
    02:00 +12°C° 0 mm 1 m/s 736 mmHg 45%
    03:00 +11°C° 0 mm 1 m/s 736 mmHg 46%
    04:00 +11°C° 0 mm 1 m/s 736 mmHg 46%
    05:00 +11°C° 0 mm 1 m/s 736 mmHg 47%
    06:00 +11°C° 0 mm 1 m/s 736 mmHg 48%
    07:00 +12°C° 0 mm 1 m/s 737 mmHg 45%
    08:00 +14°C° 0 mm 1 m/s 737 mmHg 41%
    09:00 +16°C° 0 mm 1 m/s 737 mmHg 37%
    10:00 +19°C° 0 mm 1 m/s 737 mmHg 33%
    11:00 +19°C° 0 mm 2 m/s 737 mmHg 31%
    12:00 +20°C° 0 mm 2 m/s 737 mmHg 30%
    13:00 +21°C° 0 mm 2 m/s 737 mmHg 29%
    14:00 +20°C° 0 mm 2 m/s 737 mmHg 31%
    15:00 +19°C° 0 mm 2 m/s 736 mmHg 34%
    16:00 +20°C° 0 mm 1 m/s 736 mmHg 37%
    17:00 +18°C° 0 mm 1 m/s 736 mmHg 39%
    18:00 +16°C° 0 mm 1 m/s 736 mmHg 41%
    19:00 +15°C° 0 mm 1 m/s 736 mmHg 42%
    20:00 +14°C° 0 mm 1 m/s 736 mmHg 43%
    21:00 +14°C° 0 mm 1 m/s 736 mmHg 44%
    22:00 +13°C° 0 mm 1 m/s 736 mmHg 45%
    23:00 +13°C° 0 mm 1 m/s 736 mmHg 46%

    Mâine, 17 Octombrie, Miercuri

    Timp Temperatura Precipitaţii Vânt Presiune Umiditate
    00:00 +13°C° 0 mm 1 m/s 736 mmHg 46%
    01:00 +13°C° 0 mm 1 m/s 736 mmHg 47%
    02:00 +12°C° 0 mm 1 m/s 736 mmHg 48%
    03:00 +12°C° 0 mm 1 m/s 736 mmHg 49%
    04:00 +12°C° 0 mm 1 m/s 735 mmHg 50%
    05:00 +12°C° 0 mm 1 m/s 736 mmHg 51%
    06:00 +12°C° 0 mm 1 m/s 736 mmHg 51%
    07:00 +12°C° 0 mm 1 m/s 736 mmHg 52%
    08:00 +14°C° 0 mm 1 m/s 736 mmHg 46%
    09:00 +16°C° 0 mm 1 m/s 736 mmHg 41%
    10:00 +20°C° 0 mm 1 m/s 736 mmHg 35%
    11:00 +21°C° 0 mm 1 m/s 736 mmHg 33%
    12:00 +22°C° 0 mm 1 m/s 736 mmHg 31%
    13:00 +23°C° 0 mm 1 m/s 735 mmHg 29%
    14:00 +22°C° 0 mm 1 m/s 735 mmHg 32%
    15:00 +21°C° 0 mm 1 m/s 735 mmHg 35%
    16:00 +20°C° 0 mm 1 m/s 734 mmHg 38%
    17:00 +19°C° 0 mm 1 m/s 734 mmHg 40%
    18:00 +16°C° 0 mm 1 m/s 734 mmHg 42%
    19:00 +15°C° 0 mm 1 m/s 734 mmHg 44%
    20:00 +14°C° 0 mm 1 m/s 734 mmHg 46%
    21:00 +14°C° 0 mm 1 m/s 734 mmHg 47%
    22:00 +13°C° 0 mm 1 m/s 734 mmHg 49%
    23:00 +13°C° 0 mm 1 m/s 734 mmHg 50%

    Poimâine, 18 Octombrie, Joi

    Timp Temperatura Precipitaţii Vânt Presiune Umiditate
    00:00 +13°C° 0 mm 1 m/s 734 mmHg 51%
    01:00 +12°C° 0 mm 1 m/s 734 mmHg 52%
    02:00 +12°C° 0 mm 1 m/s 734 mmHg 52%
    03:00 +12°C° 0 mm 1 m/s 734 mmHg 53%
    04:00 +12°C° 0 mm 1 m/s 734 mmHg 53%
    05:00 +12°C° 0 mm 1 m/s 734 mmHg 54%
    06:00 +12°C° 0 mm 1 m/s 734 mmHg 54%
    07:00 +12°C° 0 mm 1 m/s 734 mmHg 54%
    08:00 +14°C° 0 mm 1 m/s 734 mmHg 50%
    09:00 +16°C° 0 mm 1 m/s 734 mmHg 46%
    10:00 +19°C° 0 mm 1 m/s 735 mmHg 42%
    11:00 +19°C° 0 mm 1 m/s 734 mmHg 40%
    12:00 +20°C° 0 mm 1 m/s 734 mmHg 39%
    13:00 +21°C° 0 mm 1 m/s 734 mmHg 37%
    14:00 +20°C° 0 mm 1 m/s 734 mmHg 40%
    15:00 +19°C° 0 mm 1 m/s 734 mmHg 43%
    16:00 +18°C° 0 mm 1 m/s 733 mmHg 46%
    17:00 +16°C° 0 mm 1 m/s 733 mmHg 49%
    18:00 +15°C° 0 mm 1 m/s 734 mmHg 51%
    19:00 +14°C° 0 mm 1 m/s 734 mmHg 54%
    20:00 +14°C° 0 mm 1 m/s 734 mmHg 55%
    21:00 +13°C° 0 mm 1 m/s 734 mmHg 57%
    22:00 +13°C° 0 mm 1 m/s 734 mmHg 59%
    23:00 +12°C° 0 mm 1 m/s 734 mmHg 60%

    19 Octombrie, Vineri

    Timp Temperatura Precipitaţii Vânt Presiune Umiditate
    00:00 +12°C° 0 mm 1 m/s 734 mmHg 62%
    01:00 +12°C° 0 mm 1 m/s 734 mmHg 63%
    02:00 +11°C° 0 mm 1 m/s 734 mmHg 65%
    03:00 +11°C° 0 mm 1 m/s 734 mmHg 66%
    04:00 +11°C° 0 mm 1 m/s 734 mmHg 68%
    05:00 +11°C° 0 mm 1 m/s 734 mmHg 68%
    06:00 +11°C° 0 mm 1 m/s 734 mmHg 69%
    07:00 +11°C° 0 mm 1 m/s 734 mmHg 69%
    08:00 +14°C° 0 mm 1 m/s 735 mmHg 62%
    09:00 +16°C° 0 mm 1 m/s 735 mmHg 54%
    10:00 +19°C° 0 mm 1 m/s 735 mmHg 47%
    11:00 +20°C° 0 mm 1 m/s 735 mmHg 44%
    12:00 +21°C° 0 mm 1 m/s 735 mmHg 42%
    13:00 +22°C° 0 mm 1 m/s 735 mmHg 40%
    14:00 +21°C° 0 mm 1 m/s 735 mmHg 43%
    15:00 +20°C° 0 mm 1 m/s 734 mmHg 47%
    16:00 +19°C° 0 mm 1 m/s 734 mmHg 50%
    17:00 +18°C° 0 mm 1 m/s 735 mmHg 55%
    18:00 +16°C° 0 mm 1 m/s 735 mmHg 59%
    19:00 +14°C° 0 mm 1 m/s 735 mmHg 64%
    20:00 +14°C° 0 mm 1 m/s 735 mmHg 67%
    21:00 +13°C° 0 mm 1 m/s 735 mmHg 70%
    22:00 +13°C° 0 mm 1 m/s 735 mmHg 74%
    23:00 +12°C° 0 mm 1 m/s 735 mmHg 76%

    20 Octombrie, Sâmbătă

    Timp Temperatura Precipitaţii Vânt Presiune Umiditate
    00:00 +12°C° 0 mm 1 m/s 735 mmHg 78%
    01:00 +12°C° 0 mm 1 m/s 735 mmHg 80%
    02:00 +11°C° 0 mm 1 m/s 735 mmHg 81%
    03:00 +11°C° 0 mm 1 m/s 735 mmHg 83%
    04:00 +11°C° 0 mm 1 m/s 735 mmHg 84%
    05:00 +11°C° 0 mm 1 m/s 735 mmHg 83%
    06:00 +11°C° 0 mm 1 m/s 736 mmHg 82%
    07:00 +11°C° 0 mm 1 m/s 736 mmHg 81%
    08:00 +13°C° 0 mm 1 m/s 736 mmHg 74%
    09:00 +15°C° 0 mm 1 m/s 736 mmHg 67%
    10:00 +16°C° 0 mm 1 m/s 737 mmHg 59%
    11:00 +18°C° 0 mm 1 m/s 736 mmHg 57%
    12:00 +19°C° 0 mm 1 m/s 736 mmHg 55%
    13:00 +18°C° 0 mm 2 m/s 736 mmHg 52%
    14:00 +19°C° 0 mm 1 m/s 736 mmHg 54%
    15:00 +18°C° 0 mm 1 m/s 735 mmHg 56%
    16:00 +18°C° 0 mm 1 m/s 735 mmHg 59%
    17:00 +16°C° 0.1 mm 1 m/s 735 mmHg 63%
    18:00 +15°C° 0.1 mm 1 m/s 735 mmHg 66%
    19:00 +14°C° 0.1 mm 1 m/s 735 mmHg 70%
    20:00 +13°C° 0.2 mm 1 m/s 735 mmHg 73%
    21:00 +12°C° 0.2 mm 1 m/s 735 mmHg 76%
    22:00 +12°C° 0.2 mm 2 m/s 735 mmHg 79%
    23:00 +12°C° 0.4 mm 2 m/s 735 mmHg 79%

    21 Octombrie, Duminică

    Timp Temperatura Precipitaţii Vânt Presiune Umiditate
    00:00 +12°C° 0.4 mm 2 m/s 735 mmHg 80%
    01:00 +10°C° 0.4 mm 2 m/s 735 mmHg 80%
    02:00 +10°C° 0.5 mm 2 m/s 735 mmHg 81%
    03:00 +10°C° 0.5 mm 2 m/s 735 mmHg 81%
    04:00 +9°C° 0.5 mm 2 m/s 735 mmHg 82%
    05:00 +9°C° 0.6 mm 2 m/s 735 mmHg 81%
    06:00 +9°C° 0.6 mm 3 m/s 735 mmHg 81%
    07:00 +8°C° 0.6 mm 3 m/s 735 mmHg 80%
    08:00 +8°C° 0.3 mm 3 m/s 735 mmHg 76%
    09:00 +9°C° 0.3 mm 3 m/s 735 mmHg 73%
    10:00 +9°C° 0.3 mm 3 m/s 735 mmHg 69%
    11:00 +9°C° 0.4 mm 3 m/s 735 mmHg 67%
    12:00 +10°C° 0.4 mm 3 m/s 735 mmHg 65%
    13:00 +10°C° 0.4 mm 4 m/s 735 mmHg 64%
    14:00 +10°C° 0.6 mm 3 m/s 735 mmHg 66%
    15:00 +10°C° 0.6 mm 3 m/s 735 mmHg 67%
    16:00 +9°C° 0.6 mm 3 m/s 735 mmHg 69%
    17:00 +9°C° 0.2 mm 3 m/s 735 mmHg 70%
    18:00 +9°C° 0.2 mm 3 m/s 735 mmHg 70%
    19:00 +8°C° 0.2 mm 3 m/s 735 mmHg 70%
    20:00 +8°C° 0 mm 3 m/s 736 mmHg 70%
    21:00 +8°C° 0 mm 3 m/s 736 mmHg 70%
    22:00 +7°C° 0 mm 3 m/s 736 mmHg 70%
    23:00 +7°C° 0 mm 3 m/s 736 mmHg 71%
    Arată mai mult